CW4952 Weather Reports


time (UTC)temp
C
wind
direction
speed
KPH
gust
KPH
rain 1hr
cm
rain 24hr
cm
rain mn
cm
humidity
%
barometer
mb
20260506231602 29 116 3.2 9.7 0.00 0.00 0.00 65 1015.3
20260506231501 29 115 3.2 8.0 0.00 0.00 0.00 65 1015.2
20260506230055 30 0 3.2 16.1 0.00 0.00 0.00 65 1015.3
20260506230000 30 112 1.6 16.1 0.00 0.00 0.00 66 1015.2
20260506224600 30 153 3.2 8.0 0.00 0.00 0.00 65 1015.3
20260506224546 30 154 3.2 12.9 0.00 0.00 0.00 64 1015.4
20260506223102 30 145 3.2 8.0 0.00 0.00 0.00 64 1015.1
20260506223043 30 127 1.6 16.1 0.00 0.00 0.00 63 1015.5
20260506221559 31 112 6.4 11.3 0.00 0.00 0.00 61 1015.1
20260506221555 31 122 4.8 11.3 0.00 0.00 0.00 61 1015.3
20260506220101 32 126 6.4 12.9 0.00 0.00 0.00 59 1015.1
20260506220055 32 98 4.8 12.9 0.00 0.00 0.00 58 1015.2
20260506214558 33 107 4.8 9.7 0.00 0.00 0.00 56 1015.1
20260506214546 33 134 3.2 9.7 0.00 0.00 0.00 55 1015.2
20260506213057 35 128 1.6 6.4 0.00 0.00 0.00 43 1015.1
20260506213044 35 179 0.0 11.3 0.00 0.00 0.00 43 1015.3
20260506211556 35 5 1.6 11.3 0.00 0.00 0.00 42 1015.2
20260506211547 35 286 3.2 12.9 0.00 0.00 0.00 43 1015.4
20260506210054 35 199 1.6 8.0 0.00 0.00 0.00 44 1015.5
20260506204559 35 258 1.6 8.0 0.00 0.00 0.00 45 1015.5
20260506204544 35 282 1.6 8.0 0.00 0.00 0.00 44 1015.6
20260506203052 35 289 1.6 8.0 0.00 0.00 0.00 46 1015.6
20260506203040 35 289 1.6 8.0 0.00 0.00 0.00 46 1015.7
20260506201556 35 252 3.2 9.7 0.00 0.00 0.00 45 1015.8
20260506201550 35 217 1.6 9.7 0.00 0.00 0.00 45 1016.0
20260506200108 35 175 1.6 11.3 0.00 0.00 0.00 45 1016.1
20260506200047 35 173 1.6 11.3 0.00 0.00 0.00 45 1016.1
20260506194603 35 222 3.2 12.9 0.00 0.00 0.00 47 1016.4
20260506194546 35 153 3.2 14.5 0.00 0.00 0.00 46 1016.2
20260506193049 34 227 1.6 8.0 0.00 0.00 0.00 46 1016.6
20260506193044 34 236 1.6 9.7 0.00 0.00 0.00 45 1016.5
20260506191548 35 219 1.6 6.4 0.00 0.00 0.00 47 1016.7
20260506191540 35 219 0.0 4.8 0.00 0.00 0.00 46 1016.7
20260506190046 33 161 3.2 11.3 0.00 0.00 0.00 49 1016.9
20260506190043 33 148 1.6 16.1 0.00 0.00 0.00 49 1016.9
20260506184553 33 202 1.6 11.3 0.00 0.00 0.00 49 1017.0
20260506184544 33 170 1.6 11.3 0.00 0.00 0.00 50 1017.1
20260506183057 33 198 4.8 11.3 0.00 0.00 0.00 51 1017.3
20260506183039 33 198 4.8 11.3 0.00 0.00 0.00 50 1017.2
20260506181544 33 140 1.6 9.7 0.00 0.00 0.00 51 1017.3
20260506181542 33 140 1.6 8.0 0.00 0.00 0.00 52 1017.4
20260506180045 32 0 3.2 8.0 0.00 0.00 0.00 54 1017.5
20260506180037 32 237 1.6 6.4 0.00 0.00 0.00 54 1017.5
20260506174542 32 213 3.2 11.3 0.00 0.00 0.00 55 1017.6
20260506174533 32 205 3.2 11.3 0.00 0.00 0.00 55 1017.7
20260506173047 31 218 3.2 9.7 0.00 0.00 0.00 57 1018.0
20260506173030 31 218 3.2 9.7 0.00 0.00 0.00 57 1018.1
20260506171554 31 193 1.6 11.3 0.00 0.00 0.00 58 1018.1
20260506171537 31 190 3.2 11.3 0.00 0.00 0.00 58 1018.2
20260506170041 31 178 1.6 20.9 0.00 0.00 0.00 58 1018.4
20260506170026 31 178 1.6 17.7 0.00 0.00 0.00 59 1018.3
20260506164544 30 184 0.0 11.3 0.00 0.00 0.00 60 1018.5
20260506164523 30 184 1.6 9.7 0.00 0.00 0.00 61 1018.4
20260506163051 30 216 1.6 14.5 0.00 0.00 0.00 60 1018.6
20260506163021 30 216 3.2 14.5 0.00 0.00 0.00 60 1018.6
20260506161545 30 232 3.2 14.5 0.00 0.00 0.00 61 1018.8
20260506161522 30 140 1.6 11.3 0.00 0.00 0.00 61 1018.6
20260506160057 29 224 1.6 16.1 0.00 0.00 0.00 62 1018.9
20260506160027 29 221 3.2 12.9 0.00 0.00 0.00 63 1018.6
20260506154542 29 157 3.2 11.3 0.00 0.00 0.00 62 1018.9
20260506154515 29 153 3.2 11.3 0.00 0.00 0.00 63 1018.6
20260506153046 29 265 4.8 19.3 0.00 0.00 0.00 63 1019.0
20260506153012 29 253 4.8 17.7 0.00 0.00 0.00 63 1018.5
20260506151545 29 271 3.2 9.7 0.00 0.00 0.00 65 1018.9
20260506151509 29 256 3.2 9.7 0.00 0.00 0.00 65 1018.4
20260506150052 28 203 3.2 16.1 0.00 0.00 0.00 64 1018.8
20260506150014 28 153 3.2 9.7 0.00 0.00 0.00 65 1018.2
20260506144558 28 213 1.6 14.5 0.00 0.00 0.00 65 1018.7
20260506144504 28 219 1.6 12.9 0.00 0.00 0.00 65 1018.2
20260506143105 28 171 1.6 9.7 0.00 0.00 0.00 68 1018.2
20260506143039 28 171 1.6 11.3 0.00 0.00 0.00 67 1018.6
20260506141558 27 165 3.2 11.3 0.00 0.00 0.00 69 1018.3
20260506141540 27 210 3.2 16.1 0.00 0.00 0.00 68 1018.7
20260506140105 27 231 3.2 11.3 0.00 0.00 0.00 70 1018.3
20260506140048 27 231 3.2 12.9 0.00 0.00 0.00 70 1018.6
20260506134550 26 202 3.2 9.7 0.00 0.00 0.00 72 1018.3
20260506134545 26 186 1.6 12.9 0.00 0.00 0.00 72 1018.7
20260506133048 25 224 1.6 11.3 0.00 0.00 0.00 74 1018.2
20260506133044 25 224 1.6 11.3 0.00 0.00 0.00 74 1018.7
20260506131551 25 185 3.2 12.9 0.00 0.00 0.00 75 1018.5
20260506131542 25 185 3.2 11.3 0.00 0.00 0.00 75 1018.0
20260506130046 23 213 1.6 6.4 0.00 0.00 0.00 78 1018.5
20260506130039 23 212 1.6 4.8 0.00 0.00 0.00 78 1017.7
20260506124542 22 0 0.0 6.4 0.00 0.00 0.00 83 1018.3
20260506124534 22 230 0.0 6.4 0.00 0.00 0.00 84 1017.7
20260506123036 21 0 0.0 3.2 0.00 0.00 0.00 88 1018.2
20260506123029 21 328 0.0 3.2 0.00 0.00 0.00 89 1017.6
20260506121550 18 0 0.0 3.2 0.00 0.00 0.00 92 1017.9
20260506121526 18 311 0.0 3.2 0.00 0.00 0.00 92 1017.4
20260506120051 17 0 0.0 0.0 0.00 0.00 0.00 92 1017.7
20260506120022 17 360 0.0 0.0 0.00 0.00 0.00 93 1017.3
20260506114552 17 0 0.0 0.0 0.00 0.00 0.00 92 1017.6
20260506114526 17 360 0.0 0.0 0.00 0.00 0.00 92 1017.2
20260506113040 16 0 0.0 0.0 0.00 0.00 0.00 90 1017.6
20260506113019 16 360 0.0 0.0 0.00 0.00 0.00 91 1017.1
20260506111540 16 0 0.0 0.0 0.00 0.00 0.00 89 1017.5
20260506111515 16 360 0.0 0.0 0.00 0.00 0.00 90 1017.0
20260506110047 16 0 0.0 0.0 0.00 0.00 0.00 89 1017.3
20260506110012 16 360 0.0 0.0 0.00 0.00 0.00 89 1016.9
20260506104546 16 0 0.0 0.0 0.00 0.00 0.00 89 1017.2
20260506104510 16 360 0.0 0.0 0.00 0.00 0.00 89 1016.7
20260506103044 16 0 0.0 0.0 0.00 0.00 0.00 89 1017.1
20260506103014 16 360 0.0 0.0 0.00 0.00 0.00 89 1016.6
20260506101545 16 0 0.0 0.0 0.00 0.00 0.00 88 1017.1
20260506101511 16 360 0.0 0.0 0.00 0.00 0.00 89 1016.7
20260506100044 16 0 0.0 0.0 0.00 0.00 0.00 88 1017.2
20260506100007 16 360 0.0 0.0 0.00 0.00 0.00 89 1016.9
20260506094541 16 0 0.0 0.0 0.00 0.00 0.00 88 1017.3
20260506094513 16 360 0.0 0.0 0.00 0.00 0.00 88 1016.7
20260506093045 16 0 0.0 0.0 0.00 0.00 0.00 87 1017.0
20260506093007 16 360 0.0 0.0 0.00 0.00 0.00 88 1016.5
20260506091547 16 0 0.0 0.0 0.00 0.00 0.00 87 1016.8
20260506091504 16 360 0.0 0.0 0.00 0.00 0.00 88 1016.4
20260506090044 16 0 0.0 0.0 0.00 0.00 0.00 87 1016.8
20260506090007 16 360 0.0 0.0 0.00 0.00 0.00 88 1016.5
20260506084544 16 0 0.0 0.0 0.00 0.00 0.00 87 1016.7
20260506084510 16 360 0.0 0.0 0.00 0.00 0.00 88 1016.3
20260506083040 16 0 0.0 0.0 0.00 0.00 0.00 87 1016.6
20260506083002 16 360 0.0 0.0 0.00 0.00 0.00 87 1016.4
20260506081543 16 0 0.0 0.0 0.00 0.00 0.00 86 1016.8
20260506081502 16 360 0.0 0.0 0.00 0.00 0.00 87 1016.3
20260506080104 16 360 0.0 0.0 0.00 0.00 0.00 86 1016.1
20260506073105 16 360 0.0 0.0 0.00 0.00 0.00 86 1016.2
20260506073044 16 0 0.0 0.0 0.00 0.00 0.00 86 1016.4
20260506071611 16 360 0.0 0.0 0.00 0.00 0.00 85 1016.4
20260506071547 16 0 0.0 0.0 0.00 0.00 0.00 85 1016.6
20260506061551 17 360 0.0 0.0 0.00 0.00 0.00 83 1017.1
20260506061544 17 0 0.0 0.0 0.00 0.00 0.00 82 1017.3
20260506044548 18 0 0.0 0.0 0.00 0.00 0.00 78 1018.3
20260506044537 18 360 0.0 0.0 0.00 0.00 0.00 78 1017.9
20260506043043 18 0 0.0 0.0 0.00 0.00 0.00 77 1018.3
20260506043035 18 360 0.0 0.0 0.00 0.00 0.00 77 1018.0
20260506041545 18 360 0.0 0.0 0.00 0.00 0.00 76 1018.2
20260506041543 18 0 0.0 0.0 0.00 0.00 0.00 75 1018.5
20260506040041 19 0 0.0 0.0 0.00 0.00 0.00 75 1018.6
20260506040031 19 360 0.0 0.0 0.00 0.00 0.00 75 1018.1
20260506034539 19 0 0.0 0.0 0.00 0.00 0.00 74 1018.5
20260506034531 19 360 0.0 0.0 0.00 0.00 0.00 75 1017.9
20260506033045 20 0 0.0 0.0 0.00 0.00 0.00 74 1018.2
20260506033031 20 360 0.0 0.0 0.00 0.00 0.00 75 1018.1
20260506031543 20 0 0.0 0.0 0.00 0.00 0.00 73 1018.4
20260506031529 20 360 0.0 0.0 0.00 0.00 0.00 73 1017.8
20260506030057 20 0 0.0 0.0 0.00 0.00 0.00 71 1018.1
20260506030032 20 360 0.0 0.0 0.00 0.00 0.00 72 1017.6
20260506024552 21 0 0.0 0.0 0.00 0.00 0.00 70 1018.0
20260506024532 21 360 0.0 0.0 0.00 0.00 0.00 71 1017.7
20260506023040 21 0 0.0 0.0 0.00 0.00 0.00 69 1018.0
20260506023028 21 360 0.0 0.0 0.00 0.00 0.00 70 1017.3
20260506021535 21 0 0.0 1.6 0.00 0.00 0.00 69 1017.7
20260506021527 21 360 0.0 1.6 0.00 0.00 0.00 69 1017.3
20260506020045 21 0 0.0 3.2 0.00 0.00 0.00 69 1017.5
20260506020027 21 360 0.0 3.2 0.00 0.00 0.00 69 1017.2
20260506014555 22 0 0.0 4.8 0.00 0.00 0.00 69 1017.5
20260506014541 22 360 0.0 4.8 0.00 0.00 0.00 69 1017.1
20260506013043 22 0 0.0 3.2 0.00 0.00 0.00 69 1017.5
20260506013030 22 360 0.0 3.2 0.00 0.00 0.00 69 1017.1
20260506011543 22 0 0.0 3.2 0.00 0.00 0.00 68 1017.4
20260506011526 22 360 0.0 3.2 0.00 0.00 0.00 68 1017.1
20260506010049 22 360 0.0 6.4 0.00 0.00 0.00 68 1017.4
20260506010028 22 360 0.0 6.4 0.00 0.00 0.00 68 1016.9
20260506004551 22 360 0.0 4.8 0.00 0.00 0.00 67 1017.3
20260506004536 22 360 0.0 4.8 0.00 0.00 0.00 68 1017.0
20260506003045 22 360 1.6 6.4 0.00 0.00 0.00 67 1017.2
20260506003024 22 360 3.2 6.4 0.00 0.00 0.00 67 1016.8
20260506001546 23 360 0.0 9.7 0.00 0.00 0.00 66 1017.0
20260506001524 23 360 0.0 9.7 0.00 0.00 0.00 66 1016.6
20260506000043 23 360 4.8 9.7 0.00 0.00 0.00 65 1016.9
20260506000031 23 360 4.8 9.7 0.00 0.00 0.00 65 1016.6
20260505234542 23 360 1.6 9.7 0.00 0.00 0.00 63 1016.8
20260505234523 23 360 1.6 8.0 0.00 0.00 0.00 64 1016.5
20260505233041 23 0 1.6 12.9 0.00 0.00 0.00 62 1016.8
20260505233021 23 360 1.6 8.0 0.00 0.00 0.00 63 1016.4